Watersmeet, MI

9:36 PM CST on December 05, 2016 (GMT -0600)
Kings Land O'Lakes

Weather History for KLNL - May, 2013

Change the Weather History Date:

Tuesday, May 21, 2013

  Actual Average (KEGV) Record (KEGV)
Temperature  
Mean Temperature 58 °F -  
Max Temperature 71 °F 69 °F 82 °F (1992)
Min Temperature 44 °F 42 °F 24 °F (2002)
Degree Days  
Heating Degree Days 8    
Growing Degree Days 8 (Base 50)    
Moisture  
Dew Point 54 °F    
Average Humidity 87    
Maximum Humidity 100    
Minimum Humidity 53    
Precipitation  
Precipitation 0.51 in - - ()
Sea Level Pressure  
Sea Level Pressure 29.66 in    
Wind  
Wind Speed 5 mph (East)    
Max Wind Speed 13 mph    
Max Gust Speed 21 mph    
Visibility 8 miles    
Events Rain , Thunderstorm    
Averages and records for this station are not official NWS values.
T = Trace of Precipitation, MM = Missing Value Source: NWS Daily Summary

Daily Weather History Graph

Daily Weather History Graph

Search for Another Location

Airport or City:

Trip Planner

Search our weather history database for the weather conditions in past years. The results will help you decide how hot, cold, wet, or windy it might be!

Date:

Astronomy

May. 21, 2013 Rise Set
Actual Time 5:17 AM CDT 8:30 PM CDT
Civil Twilight 4:41 AM CDT 9:06 PM CDT
Nautical Twilight 3:54 AM CDT 9:53 PM CDT
Astronomical Twilight 2:56 AM CDT 10:52 PM CDT
Moon 4:32 PM CDT (5/21) 2:58 AM CDT (5/21)
Length of Visible Light 16h 25m
Length of Day
15h 12m
Waxing Gibbous, 84% of the Moon is Illuminated
May 21
Waxing Gibbous
May 24
Full
May 31
Last Quarter
Jun 8
New
Jun 16
First Quarter

Hourly Weather History & Observations

Time (CDT) Temp. Windchill Dew Point Humidity Pressure Visibility Wind Dir Wind Speed Gust Speed Precip Events Conditions
12:15 AM 53.6 °F - 51.8 °F 94% 29.71 in 10.0 mi Calm Calm - N/A   Scattered Clouds
12:35 AM 55.4 °F - 53.6 °F 94% 29.70 in 10.0 mi Calm Calm - N/A   Scattered Clouds
12:55 AM 55.4 °F - 53.6 °F 94% 29.70 in 10.0 mi Calm Calm - N/A   Clear
1:15 AM 55.4 °F - 53.6 °F 94% 29.69 in 10.0 mi Calm Calm - N/A   Scattered Clouds
1:35 AM 57.2 °F - 53.6 °F 88% 29.68 in 10.0 mi Calm Calm - N/A   Scattered Clouds
1:55 AM 55.4 °F - 55.4 °F 100% 29.68 in 7.0 mi Calm Calm - N/A   Scattered Clouds
2:15 AM 57.2 °F - 55.4 °F 94% 29.66 in 7.0 mi ENE 3.5 mph - N/A   Mostly Cloudy
2:35 AM 57.2 °F - 55.4 °F 94% 29.65 in 7.0 mi ENE 3.5 mph - N/A   Scattered Clouds
2:55 AM 57.2 °F - 55.4 °F 94% 29.65 in 7.0 mi East 5.8 mph - N/A   Mostly Cloudy
3:15 AM 57.2 °F - 55.4 °F 94% 29.64 in 7.0 mi East 4.6 mph - N/A   Mostly Cloudy
3:35 AM 57.2 °F - 55.4 °F 94% 29.63 in 7.0 mi East 3.5 mph - N/A Rain , Thunderstorm Light Thunderstorms and Rain
3:55 AM 57.2 °F - 55.4 °F 94% 29.62 in 5.0 mi ENE 3.5 mph - 0.01 in Rain Light Rain
4:15 AM 57.2 °F - 55.4 °F 94% 29.62 in 5.0 mi NE 4.6 mph - N/A Rain Rain
4:35 AM 57.2 °F - 55.4 °F 94% 29.67 in 4.0 mi South 12.7 mph 20.7 mph 0.01 in Rain , Thunderstorm Heavy Thunderstorms and Rain
4:55 AM 59.0 °F - 55.4 °F 88% 29.65 in 5.0 mi ENE 5.8 mph - 0.08 in Rain Rain
5:15 AM 57.2 °F - 55.4 °F 94% 29.64 in 7.0 mi East 8.1 mph - 0.03 in Rain Light Rain
5:35 AM 55.4 °F - 55.4 °F 100% 29.63 in 10.0 mi ENE 6.9 mph - 0.07 in   Overcast
5:55 AM 55.4 °F - 53.6 °F 94% 29.62 in 10.0 mi ENE 4.6 mph - 0.10 in   Overcast
6:15 AM 55.4 °F - 53.6 °F 94% 29.62 in 10.0 mi East 10.4 mph 18.4 mph 0.02 in Rain Rain
6:35 AM 55.4 °F - 53.6 °F 94% 29.62 in 10.0 mi East 10.4 mph - 0.03 in   Overcast
6:55 AM 53.6 °F - 53.6 °F 100% 29.62 in 2.0 mi East 10.4 mph - 0.05 in Rain Heavy Rain
7:15 AM 53.6 °F - 53.6 °F 100% 29.62 in 10.0 mi ESE 6.9 mph - 0.02 in   Overcast
7:35 AM 55.4 °F - 53.6 °F 94% 29.62 in 10.0 mi ESE 8.1 mph - 0.03 in   Overcast
7:55 AM 55.4 °F - 53.6 °F 94% 29.63 in 7.0 mi SE 8.1 mph - 0.05 in   Overcast
8:15 AM 55.4 °F - 53.6 °F 94% 29.62 in 4.0 mi SE 8.1 mph - 0.01 in Rain Light Rain
8:35 AM 55.4 °F - 55.4 °F 100% 29.62 in 5.0 mi SE 4.6 mph - 0.02 in   Overcast
8:55 AM 55.4 °F - 55.4 °F 100% 29.63 in 5.0 mi SE 6.9 mph - 0.03 in   Overcast
9:15 AM 57.2 °F - 55.4 °F 94% 29.63 in 7.0 mi SSE 5.8 mph - 0.01 in   Overcast
9:35 AM 59.0 °F - 57.2 °F 94% 29.63 in 10.0 mi SSE 6.9 mph - 0.01 in   Overcast
9:55 AM 60.8 °F - 59.0 °F 94% 29.62 in 10.0 mi South 6.9 mph - 0.02 in   Overcast
10:15 AM 62.6 °F - 57.2 °F 82% 29.62 in 10.0 mi South 8.1 mph - 0.01 in   Mostly Cloudy
10:35 AM 64.4 °F - 57.2 °F 77% 29.62 in 10.0 mi South 6.9 mph - 0.01 in   Scattered Clouds
10:55 AM 68.0 °F - 55.4 °F 64% 29.62 in 10.0 mi South 6.9 mph - 0.02 in   Scattered Clouds
11:15 AM 66.2 °F - 55.4 °F 68% 29.63 in 10.0 mi SW 4.6 mph 16.1 mph N/A   Mostly Cloudy
11:35 AM 66.2 °F - 53.6 °F 64% 29.63 in 10.0 mi SSW 5.8 mph - 0.01 in   Overcast
11:55 AM 68.0 °F - 53.6 °F 60% 29.63 in 10.0 mi SSW 6.9 mph - 0.01 in   Mostly Cloudy
12:15 PM 69.8 °F - 53.6 °F 56% 29.63 in 10.0 mi SSW 8.1 mph - N/A   Mostly Cloudy
12:35 PM 69.8 °F - 53.6 °F 56% 29.62 in 10.0 mi SW 6.9 mph - N/A   Mostly Cloudy
12:55 PM 71.6 °F - 53.6 °F 53% 29.62 in 10.0 mi South 9.2 mph - N/A   Mostly Cloudy
1:15 PM 69.8 °F - 53.6 °F 56% 29.62 in 10.0 mi South 6.9 mph - N/A   Mostly Cloudy
1:35 PM 69.8 °F - 53.6 °F 56% 29.61 in 10.0 mi SSW 5.8 mph - N/A   Mostly Cloudy
1:55 PM 69.8 °F - 53.6 °F 56% 29.62 in 10.0 mi SSW 9.2 mph - N/A   Overcast
2:15 PM 66.2 °F - 55.4 °F 68% 29.63 in 10.0 mi SW 4.6 mph - N/A Rain Light Rain
2:35 PM 68.0 °F - 55.4 °F 64% 29.62 in 10.0 mi SSE 5.8 mph - N/A   Overcast
2:55 PM 68.0 °F - 55.4 °F 64% 29.63 in 10.0 mi SSE 8.1 mph - N/A   Mostly Cloudy
3:15 PM 68.0 °F - 55.4 °F 64% 29.64 in 10.0 mi South 6.9 mph - N/A   Mostly Cloudy
3:35 PM 66.2 °F - 55.4 °F 68% 29.63 in 10.0 mi SE 4.6 mph - N/A   Overcast
3:55 PM 64.4 °F - 55.4 °F 73% 29.63 in 10.0 mi SE 4.6 mph - N/A Rain Light Rain
4:15 PM 64.4 °F - 57.2 °F 77% 29.63 in 10.0 mi SE 3.5 mph - N/A   Overcast
4:35 PM 64.4 °F - 57.2 °F 77% 29.63 in 10.0 mi Calm Calm - N/A   Overcast
4:55 PM 60.8 °F - 55.4 °F 82% 29.65 in 10.0 mi NW 8.1 mph 16.1 mph N/A Rain Light Rain
5:15 PM 59.0 °F - 55.4 °F 88% 29.65 in 4.0 mi North 9.2 mph - 0.01 in Rain Heavy Rain
5:35 PM 59.0 °F - 55.4 °F 88% 29.66 in 7.0 mi NNE 6.9 mph - 0.02 in Rain Light Rain
5:55 PM 57.2 °F - 55.4 °F 94% 29.68 in 10.0 mi North 5.8 mph - 0.03 in   Overcast
6:15 PM 55.4 °F - 55.4 °F 100% 29.68 in 10.0 mi North 6.9 mph - 0.01 in Rain Light Rain
6:35 PM 55.4 °F - 53.6 °F 94% 29.68 in 10.0 mi North 6.9 mph - 0.02 in   Overcast
6:55 PM 55.4 °F - 53.6 °F 94% 29.69 in 7.0 mi NNW 8.1 mph - 0.03 in Rain Rain
7:15 PM 53.6 °F - 53.6 °F 100% 29.69 in 10.0 mi North 8.1 mph - 0.01 in Rain Light Rain
7:35 PM 53.6 °F - 51.8 °F 94% 29.70 in 10.0 mi North 6.9 mph - 0.02 in Rain Rain
7:55 PM 53.6 °F - 51.8 °F 94% 29.70 in 10.0 mi North 8.1 mph - 0.02 in Rain Rain
8:15 PM 51.8 °F - 51.8 °F 100% 29.70 in 7.0 mi North 4.6 mph - N/A Rain Light Rain
8:35 PM 51.8 °F - 51.8 °F 100% 29.71 in 5.0 mi North 4.6 mph - 0.01 in   Overcast
8:55 PM 51.8 °F - 50.0 °F 94% 29.70 in 2.5 mi North 6.9 mph - 0.01 in   Overcast
9:15 PM 50.0 °F - 50.0 °F 100% 29.72 in 1.2 mi North 5.8 mph - 0.01 in   Overcast
9:35 PM 50.0 °F - 48.2 °F 94% 29.72 in 1.8 mi NNE 8.1 mph - 0.01 in   Overcast
9:55 PM 48.2 °F - 46.4 °F 93% 29.74 in 1.5 mi North 8.1 mph - 0.02 in   Overcast
10:15 PM 46.4 °F 43.5 °F 46.4 °F 100% 29.75 in 5.0 mi NNE 5.8 mph - N/A   Overcast
10:35 PM 46.4 °F 42.4 °F 46.4 °F 100% 29.75 in 1.2 mi North 8.1 mph - 0.01 in   Overcast
10:55 PM 46.4 °F 42.4 °F 44.6 °F 93% 29.75 in 1.2 mi North 8.1 mph - 0.02 in   Overcast
11:15 PM 44.6 °F 42.2 °F 44.6 °F 100% 29.75 in 1.2 mi North 4.6 mph - N/A   Overcast
11:35 PM 44.6 °F 42.2 °F 44.6 °F 100% 29.75 in 1.5 mi NE 4.6 mph - 0.01 in   Overcast
11:55 PM 44.6 °F 41.4 °F 44.6 °F 100% 29.75 in 4.0 mi North 5.8 mph - 0.01 in   Drizzle